CAPE
0 0 0 5 50 158 112 49 18 0 0 0 0 0 0 0 0 0 0 0 0 0 0 0 0 0 0 0 0 0 0 172 377 337 238 308 299 257 235 140 63 1 0
0 0 0 0 2 39 27 14 3 10 5 0 0 0 0 0 0 0 0 0 0 0 0 0 0 0 0 0 0 0 0 0 142 77 5 4 17 108 231 250 211 194 80
0 0 0 0 0 0 0 0 0 3 7 1 0 0 0 0 0 0 0 1 0 0 2 1 1 1 0 0 0 0 0 0 0 129 32 13 10 13 21 36 89 210 145
0 0 0 0 0 0 0 0 0 0 0 0 0 0 0 0 0 0 0 0 0 2 2 4 8 5 5 1 0 8 3 2 0 0 81 37 10 19 34 7 7 52 124
0 0 0 0 0 0 0 0 0 0 0 0 0 0 0 0 0 1 0 0 0 0 1 6 8 6 4 3 3 1 6 8 15 5 6 23 72 62 63 29 24 65 138
0 0 0 0 0 0 0 0 0 0 0 0 0 0 0 0 0 0 0 0 0 0 2 5 11 9 8 4 1 3 8 7 11 22 17 17 12 18 51 53 21 2 4
0 0 0 0 0 0 0 0 0 0 0 0 0 0 0 0 0 0 0 0 0 1 1 1 4 12 19 11 6 10 11 14 18 9 25 41 38 44 50 43 18 16 0
0 0 0 0 0 0 0 0 0 0 0 0 0 0 0 0 0 0 0 0 0 0 0 2 3 6 6 13 25 24 16 10 26 28 23 28 35 34 40 32 36 43 22
0 0 0 0 0 0 0 0 0 0 0 0 0 0 0 0 0 0 0 0 1 0 0 0 0 0 3 3 6 23 29 31 23 21 18 20 23 22 16 18 36 61 32
0 0 0 0 0 0 0 0 0 0 0 0 0 0 0 0 0 0 0 0 1 0 0 0 0 0 2 4 11 17 20 24 13 31 44 34 32 24 18 25 39 49 58
0 0 0 0 0 0 0 0 0 0 0 0 0 0 0 0 0 0 0 0 0 1 0 0 0 0 0 0 3 10 16 13 13 19 53 46 40 41 32 34 46 57 68
0 0 0 0 0 0 0 0 0 0 0 0 0 0 0 0 0 0 0 0 0 1 0 0 0 0 0 0 2 3 11 10 9 14 18 9 28 16 11 22 33 67 75
0 0 0 0 0 0 0 0 0 0 0 0 0 0 0 0 0 0 0 0 0 0 0 0 0 0 0 0 0 0 0 0 3 22 18 30 23 30 13 12 38 53 74
0 0 0 0 0 0 0 0 0 0 0 0 0 0 0 0 0 0 0 0 0 0 1 0 0 0 0 0 0 0 0 0 1 2 12 28 24 14 3 0 2 31 75
0 0 0 0 0 0 0 0 0 0 0 0 0 0 0 0 0 0 0 0 0 0 0 0 0 0 0 0 1 2 3 2 3 0 4 15 5 24 2 3 10 25 18
0 0 0 0 0 0 0 0 0 0 0 0 0 0 0 0 0 0 0 0 0 0 0 0 0 0 0 0 1 2 2 1 5 3 3 2 0 0 0 0 1 15 26
0 0 0 0 0 0 0 0 0 0 0 0 0 0 0 0 0 0 0 0 0 0 0 1 0 0 0 0 0 1 0 1 2 2 3 1 0 0 0 0 0 0 0
0 0 0 0 0 0 0 0 0 0 0 0 0 0 0 0 0 0 0 0 0 0 0 0 0 0 0 0 0 0 0 0 0 1 1 1 0 0 0 0 0 0 0
0 0 0 0 0 0 0 0 0 0 0 0 0 0 0 0 0 0 0 0 0 0 0 0 0 0 0 0 0 0 0 0 0 0 0 0 0 0 0 0 0 1 1
0 0 0 0 0 0 0 0 0 0 0 0 0 0 0 0 0 0 0 0 0 0 0 0 0 0 0 0 0 0 0 0 0 0 0 4 3 3 0 0 0 0 0
0 0 0 0 0 0 0 0 0 0 0 0 0 0 0 0 0 0 0 0 0 0 0 0 0 0 0 0 0 0 0 0 0 0 0 1 5 6 4 1 0 0 0
0 0 0 0 0 0 0 0 0 0 0 0 0 0 0 0 0 0 0 0 0 0 0 0 0 0 0 0 0 0 0 0 0 0 0 0 1 0 1 1 3 1 0
0 0 0 0 0 0 0 0 0 0 0 0 0 0 0 0 0 0 0 0 0 0 0 0 0 0 0 0 0 0 0 0 0 0 0 0 0 0 0 0 0 0 0
3 4 2 0 0 0 0 0 0 0 0 0 0 0 0 0 0 0 0 0 0 0 0 0 0 0 0 0 0 0 0 0 0 0 0 0 0 0 0 0 0 0 0
3 8 2 0 0 0 0 0 0 0 0 0 0 0 0 0 0 0 0 0 0 0 0 0 0 0 0 0 0 0 0 0 0 0 0 0 0 0 0 0 0 0 0
0 0 0 1 0 0 0 0 0 0 0 0 0 0 0 0 0 0 0 0 0 0 0 0 0 0 0 0 0 0 0 0 0 0 0 0 0 0 0 0 0 0 0
CIN
0 0 0 -23 -33 -25 -33 -69 -116 0 0 0 0 0 0 0 0 0 0 0 0 0 0 0 0 0 0 0 0 0 0 -164 -16 -11 -29 -19 -28 -39 -30 -69 -156 -72 0
0 0 0 0 -12 -85 -109 -171 -190 -250 -306 0 0 0 0 0 0 0 0 0 0 0 0 0 -4 -2 0 0 0 0 0 0 -151 -94 -2 -1 -102 -108 -35 -32 -54 -68 -120
0 0 0 0 0 0 0 0 0 -202 -305 -141 0 0 0 0 0 0 0 -8 0 -12 -11 -11 -11 -9 -14 -8 -6 -10 0 0 0 -163 -10 -4 -2 -27 -91 -132 -87 -48 -61
0 0 0 0 0 0 0 0 0 0 0 0 0 0 0 0 0 0 0 0 0 -12 -5 -7 -7 -8 -11 -13 -11 -8 -18 -18 0 0 -51 -13 -19 -18 -8 -44 -24 -79 -40
0 0 0 0 0 0 0 0 0 0 0 0 0 0 0 0 0 -7 0 0 0 -5 -11 -4 -8 -8 -10 -11 -12 -17 -18 -20 -12 -14 -15 -19 -9 -6 -6 -3 -29 -109 -49
0 0 0 0 0 0 0 0 0 0 0 0 0 0 0 0 0 -1 0 0 -6 0 -5 -3 -2 -2 -5 -8 -11 -6 -7 -13 -12 -13 -12 -11 -6 -6 -6 -2 -4 -5 -10
0 0 0 0 0 0 0 0 0 0 0 0 0 0 0 0 0 0 0 -6 0 -2 -4 -5 -3 -1 -1 -2 -3 0 -3 -5 -7 -10 -11 -11 -9 -9 -7 -10 -4 -7 0
0 0 0 0 0 0 0 0 0 0 0 0 0 0 0 0 0 0 0 0 0 0 0 -3 -2 0 -1 -3 -1 -1 -1 -4 -6 -6 -10 -8 -7 -15 -11 -10 -4 -2 -9
0 0 0 0 0 0 0 0 0 0 0 0 0 0 0 0 0 0 0 0 -2 0 0 0 0 0 -2 -2 -4 0 -1 -1 -2 -7 -11 -8 -7 -11 -16 -17 -5 -2 -1
0 0 0 0 0 0 0 0 0 0 0 0 0 0 0 0 0 0 0 0 -1 0 0 0 -1 0 -2 -3 -1 0 0 -3 -3 -1 -1 -1 -1 -4 -11 -11 -9 -4 -2
0 0 0 0 0 0 0 0 0 0 0 0 0 0 0 0 0 0 0 0 0 0 0 0 -1 0 -1 -1 0 0 -1 0 -4 -3 -1 -1 -1 -2 -4 -8 -8 -4 -3
0 0 0 0 0 0 0 0 0 0 0 0 0 0 0 0 0 0 0 0 0 -2 0 0 -1 0 0 0 0 0 -30 -2 -8 -8 -7 -5 -3 -7 -10 -7 -6 -4 -3
0 0 0 0 0 0 0 0 0 0 0 0 0 0 0 0 0 0 0 0 0 0 0 -1 0 0 0 0 0 0 0 0 0 -4 -9 -7 -3 -1 -8 -15 -5 -6 -4
0 0 0 0 0 0 0 0 0 0 0 0 0 0 0 0 0 0 0 0 0 0 -1 0 0 -1 0 0 0 0 0 0 0 0 -2 -3 -4 -6 -16 0 -17 -13 -6
0 0 0 0 0 0 0 0 0 0 0 0 0 0 0 0 0 0 0 0 0 0 -2 0 0 0 0 0 -1 0 0 0 0 0 0 -3 -25 -6 -11 -12 -22 -21 -21
0 0 0 0 0 0 0 0 0 0 0 0 0 0 0 0 0 0 0 0 0 0 0 0 0 0 0 0 0 0 0 0 0 0 0 0 0 0 0 0 -28 -39 -29
0 0 0 0 0 0 0 0 0 0 0 0 0 0 0 0 0 0 0 0 0 0 0 -1 0 0 0 0 0 0 0 0 0 0 0 0 0 0 0 0 0 0 0
0 0 0 0 0 0 0 0 0 0 0 0 0 0 0 0 0 0 0 0 0 0 0 0 -1 0 0 0 0 0 0 0 0 0 0 0 0 0 0 0 0 0 0
0 0 0 0 0 0 0 0 0 0 0 0 0 0 0 0 0 0 0 0 0 0 0 0 0 0 0 0 0 0 0 0 0 0 0 0 0 0 0 0 0 0 0
0 0 0 0 0 0 0 0 0 0 0 0 0 0 0 0 0 0 0 0 0 0 0 0 0 0 0 0 0 0 0 0 0 0 0 0 0 0 0 0 0 0 0
0 0 0 0 0 0 0 0 0 0 0 0 0 0 0 0 0 0 0 0 0 0 0 0 0 0 0 0 0 0 0 0 0 0 0 0 0 0 0 0 0 0 0
0 0 0 0 0 0 0 0 0 0 0 0 0 0 0 0 0 0 0 0 0 0 0 0 0 0 0 0 0 0 0 0 0 0 0 0 0 0 0 0 0 0 0
0 0 0 0 0 0 0 0 0 0 0 0 0 0 0 0 0 0 0 0 0 0 0 0 0 0 0 0 0 0 0 0 0 0 0 0 0 0 0 0 0 0 0
-2 -10 -7 0 0 0 0 0 0 0 0 0 0 0 0 0 0 0 0 0 0 0 0 0 0 0 0 0 0 0 0 0 0 0 0 0 0 0 0 0 0 0 0
-23 -19 -12 0 0 0 0 0 0 0 0 0 0 0 0 0 0 0 0 0 0 0 0 0 0 0 0 0 0 0 0 0 0 0 0 0 0 0 0 0 0 0 0
0 0 0 -1 0 0 0 0 -1 0 0 0 0 0 0 0 0 0 0 0 0 0 0 0 0 0 0 0 0 0 0 0 0 0 0 0 0 0 0 0 0 0 0
Wind_Speed
7 3 3 4 3 4 4 4 3 4 3 2 3 3 3 2 2 3 5 6 4 5 5 4 5 5 5 6 6 4 5 5 5 4 6 8 9 10 10 8 4 10 9
6 2 4 5 4 5 5 5 6 5 4 3 2 1 1 2 2 3 5 6 6 5 5 7 7 6 5 6 6 7 4 3 7 7 5 7 8 9 10 10 10 12 8
5 5 5 6 8 7 8 7 6 5 4 4 2 2 2 2 3 4 3 3 5 6 5 6 6 7 8 6 6 5 8 8 4 10 6 3 8 2 5 13 12 14 13
3 5 5 3 7 5 4 4 5 5 4 4 3 5 4 4 3 2 3 4 4 7 7 7 7 8 7 9 8 8 7 5 9 4 8 12 5 3 3 3 10 12 14
4 4 6 7 2 5 5 4 5 6 6 5 5 4 5 4 3 3 5 4 5 6 8 8 8 8 7 9 10 11 10 7 7 8 8 7 9 12 10 10 4 6 9
2 3 3 2 3 2 3 4 4 5 5 6 7 7 7 7 4 6 7 6 4 3 5 8 8 9 9 9 9 10 12 11 9 7 9 9 8 7 8 10 11 12 7
3 4 5 6 6 6 6 5 6 7 6 7 7 7 7 7 7 6 3 5 4 4 4 6 7 7 8 10 10 10 11 11 10 11 8 8 9 8 8 8 10 10 8
2 5 7 6 5 6 6 6 7 7 7 7 7 6 7 4 4 5 3 3 4 5 5 6 7 9 10 8 10 9 10 11 10 11 10 10 9 7 7 9 9 11 8
7 7 6 5 6 6 7 8 7 7 7 7 6 6 6 7 6 6 4 3 5 6 6 5 7 9 9 10 11 9 10 10 10 11 11 10 9 9 8 8 9 11 14
8 7 7 6 6 7 6 6 6 7 7 7 7 6 7 7 6 5 6 6 6 8 9 8 7 7 9 9 11 9 11 11 9 10 14 13 10 9 8 9 10 10 13
8 7 6 7 6 5 5 6 6 7 7 7 7 7 7 7 6 6 6 6 4 9 10 9 6 6 9 9 8 11 11 12 12 13 15 14 12 9 9 8 9 10 11
7 7 7 7 7 7 7 7 7 7 8 7 7 7 7 7 7 6 7 6 5 6 9 8 8 6 7 9 9 10 11 11 13 13 13 13 10 12 11 9 11 11 11
7 5 6 7 7 7 7 7 7 7 7 7 7 7 7 7 7 7 7 6 6 5 7 8 6 6 8 8 8 7 10 11 12 13 14 13 12 12 10 10 10 10 9
6 6 7 8 7 7 7 7 7 7 7 6 7 8 7 7 7 7 7 6 7 7 9 6 6 5 9 8 9 10 12 12 12 13 15 13 11 11 10 9 10 10 8
5 5 6 8 10 9 8 7 7 7 7 7 7 8 7 7 7 7 7 7 6 6 6 9 6 6 7 6 7 10 10 11 12 12 13 12 9 11 13 9 9 8 7
7 8 11 13 13 12 12 10 9 7 6 7 8 7 7 7 8 7 7 7 7 7 6 11 7 6 5 5 12 11 9 9 10 10 9 7 7 8 13 15 13 10 8
10 13 14 12 12 13 12 12 12 10 8 7 7 8 7 7 8 7 7 8 7 7 7 9 10 9 6 2 11 11 5 6 7 7 8 7 4 5 5 5 6 2 5
15 17 14 13 13 12 13 11 14 13 10 9 7 9 7 8 7 7 8 7 6 7 6 7 9 6 5 4 7 8 5 4 5 7 7 7 6 6 5 2 5 6 7
14 13 10 13 12 13 12 11 11 13 13 14 8 8 7 8 8 8 8 7 6 6 6 5 6 6 6 4 5 5 3 3 5 6 8 7 7 9 5 5 7 7 7
11 10 14 11 11 11 12 12 12 12 15 16 13 9 8 8 9 10 8 7 5 7 5 6 6 7 5 5 4 3 2 1 2 4 7 15 9 9 9 7 6 7 5
13 14 12 9 10 10 11 13 13 15 15 14 12 13 10 8 9 8 6 6 6 6 6 6 6 6 6 4 2 5 3 2 1 2 3 5 14 15 15 14 7 5 5
15 11 14 14 13 11 12 14 15 14 13 13 13 12 12 9 7 7 7 6 7 7 7 7 5 4 5 5 3 4 5 7 4 2 3 5 12 14 15 11 13 13 9
12 14 15 15 14 13 12 15 16 16 16 16 16 15 13 9 7 7 8 5 7 8 8 8 6 5 4 4 6 5 5 6 3 3 4 8 10 13 11 13 13 10 5
14 13 14 14 16 14 14 14 16 16 16 17 17 16 13 9 7 6 8 8 8 9 8 8 8 5 5 5 4 3 4 9 5 8 3 5 8 10 10 8 8 5 5
11 11 12 12 15 16 15 14 15 15 15 16 15 15 12 9 6 6 7 9 11 11 9 9 8 8 7 8 11 10 6 5 7 6 2 2 2 3 4 4 5 4 4
11 13 14 13 16 16 16 15 15 15 15 15 13 12 11 7 5 5 6 10 13 14 14 12 10 6 11 15 17 15 14 14 15 3 3 2 2 4 3 4 4 4 5
Wind_Direction
316 309 125 39 73 94 97 103 172 165 144 224 246 268 254 289 321 326 341 335 317 307 308 295 283 274 257 255 259 255 234 217 189 219 246 246 244 240 242 245 234 243 215
304 91 167 228 146 168 177 190 212 192 170 174 227 214 343 312 300 314 313 301 284 281 287 277 276 276 283 275 255 254 271 246 198 220 237 254 242 237 232 229 234 237 259
291 239 229 211 167 186 194 186 209 199 195 197 212 268 265 271 264 254 244 272 316 317 287 267 261 277 291 290 272 256 239 255 252 208 197 203 243 204 205 228 227 226 230
296 309 327 246 161 197 184 206 186 192 208 225 217 229 232 251 245 248 258 272 269 281 273 266 263 258 252 262 276 271 254 242 244 275 226 239 245 241 265 248 230 229 228
324 243 243 283 228 159 171 215 225 216 212 208 216 231 256 261 263 254 276 287 271 254 270 265 258 252 255 254 255 263 270 251 247 236 245 253 242 248 252 261 264 236 230
198 268 305 276 286 239 200 215 252 252 230 217 227 227 234 246 256 273 284 279 260 280 272 273 264 256 249 250 252 254 258 262 259 249 239 240 241 236 234 250 251 252 243
266 211 224 241 249 241 218 222 231 243 234 236 232 235 244 245 250 259 241 278 288 287 285 288 284 278 260 247 248 250 248 251 253 251 252 250 248 251 253 251 257 249 241
281 253 249 246 248 256 248 239 236 237 230 234 242 245 252 250 252 240 233 268 281 289 291 293 291 289 275 274 258 246 247 247 250 247 244 250 252 248 249 256 268 265 253
343 300 274 275 261 253 245 234 245 251 237 234 239 244 242 243 244 252 242 250 271 289 296 290 283 282 278 276 266 258 255 251 252 251 247 243 244 246 247 251 253 254 260
342 332 329 307 271 239 239 251 256 250 248 245 230 230 237 245 252 256 241 238 277 288 295 291 292 290 281 276 286 249 247 250 254 253 250 244 241 238 236 237 242 245 255
344 332 330 321 309 307 270 239 235 247 254 249 244 240 240 235 241 247 248 227 237 282 285 290 288 285 299 294 295 283 262 255 254 251 249 244 242 238 238 236 237 242 244
330 343 343 338 335 332 311 281 258 241 240 241 242 243 242 236 238 242 245 221 227 262 282 293 293 302 303 306 300 302 299 259 256 254 253 254 252 246 242 239 241 241 242
349 9 355 345 335 329 317 308 297 272 258 247 245 247 241 237 239 241 241 220 220 241 271 280 284 292 298 305 303 307 299 290 292 267 247 244 241 244 239 237 239 243 242
360 3 351 336 327 319 314 305 294 285 280 263 256 250 241 237 238 239 238 233 220 227 261 259 264 274 291 299 298 303 298 294 286 279 275 248 244 245 240 234 237 239 236
8 356 341 331 325 320 312 309 297 295 286 273 264 255 241 237 240 241 240 244 244 235 248 264 257 261 281 287 307 297 294 294 296 272 265 265 247 249 243 235 237 221 224
0 357 341 327 325 323 319 318 314 297 285 282 267 256 243 236 235 230 228 235 242 237 233 259 255 252 267 290 306 302 301 315 312 322 318 299 271 276 253 236 222 211 216
352 335 324 319 316 312 313 312 310 306 288 267 273 269 253 244 231 222 223 227 228 233 230 246 259 258 261 275 302 305 296 315 322 329 319 318 329 338 327 307 251 279 291
328 324 315 308 306 306 309 308 308 300 300 274 258 270 261 255 246 229 223 225 217 226 219 227 244 240 249 241 289 297 298 315 333 342 338 338 341 337 325 282 93 68 39
308 297 301 306 303 300 297 300 298 304 300 301 275 259 249 254 244 238 228 223 218 221 219 213 224 227 245 207 264 294 296 326 350 357 356 357 353 7 43 96 105 90 63
296 310 309 306 304 305 305 303 301 296 296 300 297 279 257 247 245 238 229 217 202 210 205 231 217 224 227 204 240 257 244 318 10 7 12 22 37 45 71 85 88 80 63
307 314 314 311 304 310 314 302 294 288 288 286 285 281 275 251 244 240 222 211 204 194 205 210 226 218 196 186 227 242 206 188 110 72 24 35 51 59 66 67 62 77 67
315 314 322 318 309 313 315 308 302 301 299 295 286 274 272 256 250 234 233 215 193 192 206 204 216 212 181 189 200 234 180 179 152 138 105 82 72 72 71 71 76 75 72
324 319 314 307 317 313 314 309 305 305 304 301 292 285 274 251 228 226 234 221 206 205 209 207 197 197 187 175 178 184 162 140 115 126 132 108 92 85 72 76 74 66 59
314 313 310 317 313 314 314 308 309 308 305 300 298 295 286 263 231 224 223 223 217 214 208 207 203 181 189 175 179 165 137 126 123 141 129 115 96 87 88 69 58 63 74
305 305 301 296 302 306 307 312 311 306 304 302 299 295 288 268 242 228 221 219 227 217 209 210 197 174 193 201 178 169 169 164 157 146 121 91 78 72 70 66 67 63 57
295 295 293 295 302 305 305 310 316 318 313 306 306 300 295 283 246 227 249 237 227 219 221 203 186 188 180 173 181 179 181 170 164 144 143 130 125 122 118 103 87 64 85